Weather History for Bentonville, AR

Change the Weather History Date:

Wednesday, October 31, 2012

  Actual Average Record
Temperature  
Mean Temperature 54 °F -  
Max Temperature 66 °F 63 °F 87 °F (1950)
Min Temperature 42 °F 44 °F 18 °F (1993)
Degree Days  
Heating Degree Days 11    
Growing Degree Days 4 (Base 50)    
Moisture  
Dew Point 35 °F    
Average Humidity 54    
Maximum Humidity 81    
Minimum Humidity 30    
Precipitation  
Precipitation 0.00 in - - ()
Sea Level Pressure  
Sea Level Pressure 29.99 in    
Wind  
Wind Speed 4 mph (NNE)    
Max Wind Speed 8 mph    
Max Gust Speed -    
Visibility 10 miles    
Events      
Averages and records for this station are not official NWS values.
T = Trace of Precipitation, MM = Missing Value Source: NWS Daily Summary

Daily Weather History Graph

Daily Weather History Graph

Search for Another Location

Airport:

Trip Planner

Search our weather history database for the weather conditions in past years. The results will help you decide how hot, cold, wet, or windy it might be!

Date:

Astronomy

Oct. 31, 2012 Rise Set
Actual Time 7:39 AM CDT 6:20 PM CDT
Civil Twilight 7:12 AM CDT 6:47 PM CDT
Nautical Twilight 6:42 AM CDT 7:17 PM CDT
Astronomical Twilight 6:12 AM CDT 7:47 PM CDT
Moon 7:36 PM CDT 9:18 AM CDT
Length of Visible Light 11h 34m
Length of Day
10h 41m
Full, 97% of the Moon is Illuminated
Oct 31
Full
Nov 6
Last Quarter
Nov 13
New
Nov 20
First Quarter
Nov 28
Full

Hourly Weather History & Observations

Time (CDT) Temp. Windchill Dew Point Humidity Pressure Visibility Wind Dir Wind Speed Gust Speed Precip Events Conditions
12:15 AM 48.2 °F - 37.4 °F 66% 29.95 in 10.0 mi East 4.6 mph - N/A   Clear
12:35 AM 48.2 °F - 39.2 °F 71% 29.94 in 10.0 mi East 3.5 mph - N/A   Clear
12:55 AM 48.2 °F - 39.2 °F 71% 29.94 in 10.0 mi East 5.8 mph - N/A   Clear
1:35 AM 48.2 °F - 39.2 °F 71% 29.94 in 10.0 mi East 3.5 mph - N/A   Clear
1:55 AM 46.4 °F 45.2 °F 37.4 °F 71% 29.94 in 10.0 mi East 3.5 mph - N/A   Clear
2:15 AM 46.4 °F - 37.4 °F 71% 29.94 in 10.0 mi Calm Calm - N/A   Mostly Cloudy
2:35 AM 46.4 °F 45.2 °F 37.4 °F 71% 29.94 in 10.0 mi ENE 3.5 mph - N/A   Mostly Cloudy
2:55 AM 46.4 °F - 37.4 °F 71% 29.95 in 10.0 mi Calm Calm - N/A   Partly Cloudy
3:15 AM 44.6 °F - 37.4 °F 76% 29.95 in 10.0 mi Calm Calm - N/A   Scattered Clouds
3:36 AM 42.8 °F 40.1 °F 37.4 °F 81% 29.95 in 10.0 mi NE 4.6 mph - N/A   Partly Cloudy
3:55 AM 44.6 °F 41.4 °F 37.4 °F 76% 29.95 in 10.0 mi NE 5.8 mph - N/A   Partly Cloudy
4:15 AM 44.6 °F 43.1 °F 35.6 °F 71% 29.96 in 10.0 mi NE 3.5 mph - N/A   Clear
4:55 AM 44.6 °F 42.2 °F 33.8 °F 66% 29.96 in 10.0 mi ENE 4.6 mph - N/A   Clear
5:15 AM 44.6 °F 43.1 °F 30.2 °F 57% 29.97 in 10.0 mi NE 3.5 mph - N/A   Clear
5:55 AM 42.8 °F - 33.8 °F 70% 29.97 in 10.0 mi Calm Calm - N/A   Clear
6:15 AM 42.8 °F 41.1 °F 32.0 °F 66% 29.97 in 10.0 mi NE 3.5 mph - N/A   Clear
6:55 AM 42.8 °F 41.1 °F 30.2 °F 61% 29.97 in 10.0 mi East 3.5 mph - N/A   Clear
7:15 AM 42.8 °F 39.3 °F 30.2 °F 61% 29.98 in 10.0 mi ENE 5.8 mph - N/A   Clear
7:35 AM 42.8 °F 39.3 °F 30.2 °F 61% 29.98 in 10.0 mi East 5.8 mph - N/A   Clear
7:56 AM 42.8 °F 39.3 °F 30.2 °F 61% 29.98 in 10.0 mi ENE 5.8 mph - N/A   Clear
8:15 AM 44.6 °F 42.2 °F 30.2 °F 57% 30.00 in 10.0 mi NE 4.6 mph - N/A   Clear
8:35 AM 44.6 °F 42.2 °F 30.2 °F 57% 30.01 in 10.0 mi NE 4.6 mph - N/A   Clear
8:56 AM 46.4 °F 44.3 °F 30.2 °F 53% 30.02 in 10.0 mi NE 4.6 mph - N/A   Clear
9:15 AM 46.4 °F 45.2 °F 30.2 °F 53% 30.03 in 10.0 mi NE 3.5 mph - N/A   Clear
9:35 AM 48.2 °F - 30.2 °F 50% 30.04 in 10.0 mi ENE 5.8 mph - N/A   Clear
9:56 AM 51.8 °F - 30.2 °F 44% 30.04 in 10.0 mi ENE 6.9 mph - N/A   Clear
10:16 AM 53.6 °F - 30.2 °F 41% 30.04 in 10.0 mi East 6.9 mph - N/A   Clear
10:35 AM 55.4 °F - 30.2 °F 38% 30.04 in 10.0 mi ENE 4.6 mph - N/A   Clear
10:55 AM 55.4 °F - 30.2 °F 38% 30.04 in 10.0 mi ENE 4.6 mph - N/A   Clear
11:35 AM 59.0 °F - 32.0 °F 36% 30.05 in 10.0 mi NNE 4.6 mph - N/A   Clear
11:55 AM 60.8 °F - 32.0 °F 34% 30.04 in 10.0 mi NNE 5.8 mph - N/A   Clear
12:15 PM 60.8 °F - 33.8 °F 36% 30.04 in 10.0 mi ENE 3.5 mph - N/A   Clear
12:36 PM 62.6 °F - 33.8 °F 34% 30.04 in 10.0 mi North 3.5 mph - N/A   Clear
12:55 PM 62.6 °F - 33.8 °F 34% 30.03 in 10.0 mi WNW 3.5 mph - N/A   Clear
1:55 PM 64.4 °F - 35.6 °F 34% 30.02 in 10.0 mi North 8.1 mph - N/A   Clear
2:35 PM 64.4 °F - 35.6 °F 34% 30.00 in 10.0 mi NNE 5.8 mph - N/A   Clear
2:55 PM 66.2 °F - 35.6 °F 32% 30.00 in 10.0 mi WNW 3.5 mph - N/A   Clear
3:15 PM 66.2 °F - 35.6 °F 32% 29.99 in 10.0 mi North 6.9 mph - N/A   Clear
3:35 PM 66.2 °F - 33.8 °F 30% 29.99 in 10.0 mi North 4.6 mph - N/A   Clear
4:15 PM 66.2 °F - 35.6 °F 32% 29.98 in 10.0 mi North 4.6 mph - N/A   Clear
4:35 PM 66.2 °F - 35.6 °F 32% 29.98 in 10.0 mi NW 6.9 mph - N/A   Clear
4:55 PM 64.4 °F - 35.6 °F 34% 29.98 in 10.0 mi NW 4.6 mph - N/A   Clear
5:15 PM 64.4 °F - 35.6 °F 34% 29.99 in 10.0 mi WNW 5.8 mph - N/A   Clear
5:35 PM 64.4 °F - 35.6 °F 34% 29.98 in 10.0 mi NW 3.5 mph - N/A   Clear
6:15 PM 62.6 °F - 35.6 °F 37% 29.98 in 10.0 mi North 3.5 mph - N/A   Clear
6:35 PM 60.8 °F - 35.6 °F 39% 29.99 in 10.0 mi NNW 3.5 mph - N/A   Clear
7:15 PM 55.4 °F - 37.4 °F 51% 30.00 in 10.0 mi Calm Calm - N/A   Clear
7:35 PM 55.4 °F - 35.6 °F 47% 30.00 in 10.0 mi Calm Calm - N/A   Clear
7:55 PM 55.4 °F - 35.6 °F 47% 30.00 in 10.0 mi NNW 3.5 mph - N/A   Clear
8:35 PM 51.8 °F - 37.4 °F 58% 30.01 in 10.0 mi North 3.5 mph - N/A   Clear
8:55 PM 51.8 °F - 35.6 °F 54% 30.01 in 10.0 mi North 3.5 mph - N/A   Clear
9:16 PM 51.8 °F - 37.4 °F 58% 30.01 in 10.0 mi Calm Calm - N/A   Clear
9:35 PM 48.2 °F - 37.4 °F 66% 30.02 in 10.0 mi Calm Calm - N/A   Clear
10:15 PM 46.4 °F - 37.4 °F 71% 30.02 in 10.0 mi Calm Calm - N/A   Clear
10:35 PM 46.4 °F - 37.4 °F 71% 30.03 in 10.0 mi Calm Calm - N/A   Clear
11:15 PM 44.6 °F - 37.4 °F 76% 30.03 in 10.0 mi Calm Calm - N/A   Clear
11:35 PM 44.6 °F - 37.4 °F 76% 30.03 in 10.0 mi Calm Calm - N/A   Clear